Back to catalog

SMILE

AliveScienceHEO
NORAD 69123·PAYLOAD·🇪🇺 EU

Launched May 19, 2026 from Guiana Space Centre

Loading…

Next Passes (next 24 hours)

TLE

FreshSource: Space-Track

Epoch: Sep 10, 2026, 21:52 UTC

1 69123U 26109A   26253.91179029  .00000505  00000-0  00000+0 0  9994
2 69123  70.0136 206.2630 8182473 285.8392   5.3268  0.47510467   355

Track SMILE in real time with AllMySat

Download on the App Store